| time (UTC) | temp C | wind direction | speed KPH | gust KPH | rain 1hr cm | rain 24hr cm | rain mn cm | humidity % | barometer mb |
| 20260504035220 | 12 | 210 | 4.8 | 4.8 | 0.00 | 0.00 | 0.00 | 47 | 999.4 |
| 20260504034717 | 12 | 221 | 3.2 | 4.8 | 0.00 | 0.00 | 0.00 | 46 | 999.6 |
| 20260504034214 | 13 | 251 | 1.6 | 4.8 | 0.00 | 0.00 | 0.00 | 46 | 999.7 |
| 20260504033712 | 13 | 233 | 1.6 | 6.4 | 0.00 | 0.00 | 0.00 | 46 | 999.7 |
| 20260504033209 | 12 | 243 | 1.6 | 6.4 | 0.00 | 0.00 | 0.00 | 46 | 999.7 |
| 20260504032706 | 12 | 213 | 3.2 | 4.8 | 0.00 | 0.00 | 0.00 | 48 | 999.7 |
| 20260504032203 | 13 | 233 | 0.0 | 4.8 | 0.00 | 0.00 | 0.00 | 47 | 999.9 |
| 20260504031659 | 13 | 241 | 3.2 | 6.4 | 0.00 | 0.00 | 0.00 | 45 | 999.8 |
| 20260504031156 | 12 | 249 | 1.6 | 4.8 | 0.00 | 0.00 | 0.00 | 46 | 999.8 |
| 20260504030652 | 12 | 224 | 3.2 | 4.8 | 0.00 | 0.00 | 0.00 | 48 | 999.9 |
| 20260504030150 | 13 | 216 | 3.2 | 4.8 | 0.00 | 0.00 | 0.00 | 45 | 999.7 |
| 20260504025646 | 13 | 221 | 3.2 | 4.8 | 0.00 | 0.00 | 0.00 | 45 | 1000.0 |
| 20260504025143 | 13 | 224 | 0.0 | 3.2 | 0.00 | 0.00 | 0.00 | 46 | 1000.0 |
| 20260504024640 | 13 | 231 | 1.6 | 3.2 | 0.00 | 0.00 | 0.00 | 45 | 999.9 |
| 20260504024136 | 13 | 220 | 1.6 | 4.8 | 0.00 | 0.00 | 0.00 | 44 | 999.9 |
| 20260504023633 | 13 | 224 | 3.2 | 3.2 | 0.00 | 0.00 | 0.00 | 43 | 999.8 |
| 20260504023130 | 13 | 218 | 0.0 | 3.2 | 0.00 | 0.00 | 0.00 | 44 | 999.9 |
| 20260504022626 | 13 | 194 | 1.6 | 3.2 | 0.00 | 0.00 | 0.00 | 44 | 999.8 |
| 20260504022121 | 13 | 209 | 0.0 | 3.2 | 0.00 | 0.00 | 0.00 | 47 | 999.8 |
| 20260504021620 | 12 | 210 | 0.0 | 3.2 | 0.00 | 0.00 | 0.00 | 46 | 999.9 |
| 20260504021116 | 13 | 202 | 0.0 | 3.2 | 0.00 | 0.00 | 0.00 | 47 | 1000.0 |
| 20260504020614 | 13 | 229 | 1.6 | 3.2 | 0.00 | 0.00 | 0.00 | 47 | 1000.0 |
| 20260504020109 | 13 | 240 | 0.0 | 0.0 | 0.00 | 0.00 | 0.00 | 45 | 999.9 |
| 20260504015606 | 13 | 309 | 0.0 | 0.0 | 0.00 | 0.00 | 0.00 | 47 | 999.8 |
| 20260504015102 | 13 | 309 | 0.0 | 0.0 | 0.00 | 0.00 | 0.00 | 46 | 1000.0 |
| 20260504014558 | 13 | 304 | 0.0 | 1.6 | 0.00 | 0.00 | 0.00 | 45 | 999.9 |
| 20260504014056 | 14 | 235 | 0.0 | 3.2 | 0.00 | 0.00 | 0.00 | 44 | 999.9 |
| 20260504013553 | 14 | 169 | 0.0 | 1.6 | 0.00 | 0.00 | 0.00 | 46 | 999.8 |
| 20260504013050 | 15 | 326 | 0.0 | 3.2 | 0.00 | 0.00 | 0.00 | 44 | 999.8 |
| 20260504012547 | 15 | 157 | 0.0 | 1.6 | 0.00 | 0.00 | 0.00 | 42 | 999.9 |
| 20260504012045 | 15 | 66 | 0.0 | 4.8 | 0.00 | 0.00 | 0.00 | 43 | 999.8 |
| 20260504011542 | 16 | 41 | 0.0 | 4.8 | 0.00 | 0.00 | 0.00 | 41 | 999.9 |
| 20260504011038 | 16 | 343 | 1.6 | 4.8 | 0.00 | 0.00 | 0.00 | 40 | 999.9 |
| 20260504010533 | 16 | 326 | 0.0 | 4.8 | 0.00 | 0.00 | 0.00 | 40 | 999.9 |
| 20260504010030 | 16 | 72 | 0.0 | 4.8 | 0.00 | 0.00 | 0.00 | 38 | 999.7 |
| 20260504005527 | 17 | 104 | 0.0 | 4.8 | 0.00 | 0.00 | 0.00 | 37 | 999.6 |
| 20260504005024 | 17 | 119 | 0.0 | 4.8 | 0.00 | 0.00 | 0.00 | 36 | 999.7 |
| 20260504004522 | 18 | 264 | 1.6 | 8.0 | 0.00 | 0.00 | 0.00 | 34 | 999.5 |
| 20260504004019 | 18 | 108 | 0.0 | 12.9 | 0.00 | 0.00 | 0.00 | 34 | 999.7 |
| 20260504003515 | 18 | 331 | 1.6 | 9.7 | 0.00 | 0.00 | 0.00 | 34 | 1000.0 |
| 20260504003012 | 18 | 295 | 4.8 | 12.9 | 0.00 | 0.00 | 0.00 | 32 | 999.8 |
| 20260504002509 | 18 | 250 | 4.8 | 12.9 | 0.00 | 0.00 | 0.00 | 32 | 999.9 |
| 20260504002006 | 19 | 287 | 9.7 | 16.1 | 0.00 | 0.00 | 0.00 | 30 | 999.9 |
| 20260504001503 | 20 | 289 | 6.4 | 12.9 | 0.00 | 0.00 | 0.00 | 30 | 999.9 |
| 20260504001000 | 20 | 348 | 6.4 | 16.1 | 0.00 | 0.00 | 0.00 | 30 | 1000.0 |
| 20260504000457 | 19 | 314 | 4.8 | 16.1 | 0.00 | 0.00 | 0.00 | 31 | 999.9 |
| 20260503235954 | 19 | 337 | 16.1 | 20.9 | 0.00 | 0.00 | 0.00 | 30 | 999.9 |
| 20260503235452 | 20 | 292 | 11.3 | 25.7 | 0.00 | 0.00 | 0.00 | 30 | 999.6 |
| 20260503234949 | 20 | 199 | 4.8 | 19.3 | 0.00 | 0.00 | 0.00 | 31 | 999.8 |
| 20260503234446 | 20 | 279 | 6.4 | 17.7 | 0.00 | 0.00 | 0.00 | 30 | 999.8 |
| 20260503233945 | 20 | 333 | 9.7 | 19.3 | 0.00 | 0.00 | 0.00 | 29 | 999.8 |
| 20260503233440 | 20 | 340 | 6.4 | 19.3 | 0.00 | 0.00 | 0.00 | 31 | 999.9 |
| 20260503232937 | 20 | 333 | 4.8 | 16.1 | 0.00 | 0.00 | 0.00 | 29 | 999.8 |
| 20260503232434 | 20 | 264 | 4.8 | 24.1 | 0.00 | 0.00 | 0.00 | 29 | 1000.1 |
| 20260503231932 | 21 | 12 | 3.2 | 20.9 | 0.00 | 0.00 | 0.00 | 29 | 999.9 |
| 20260503231429 | 20 | 332 | 6.4 | 22.5 | 0.00 | 0.00 | 0.00 | 29 | 999.9 |
| 20260503230926 | 21 | 298 | 20.9 | 27.4 | 0.00 | 0.00 | 0.00 | 28 | 1000.1 |
| 20260503230422 | 21 | 255 | 6.4 | 27.4 | 0.00 | 0.00 | 0.00 | 28 | 999.8 |
| 20260503225920 | 21 | 359 | 8.0 | 25.7 | 0.00 | 0.00 | 0.00 | 28 | 999.9 |
| 20260503225416 | 21 | 344 | 16.1 | 22.5 | 0.00 | 0.00 | 0.00 | 29 | 999.9 |
| 20260503224912 | 21 | 293 | 6.4 | 17.7 | 0.00 | 0.00 | 0.00 | 28 | 999.8 |
| 20260503224409 | 21 | 305 | 8.0 | 25.7 | 0.00 | 0.00 | 0.00 | 30 | 999.9 |
| 20260503223907 | 21 | 81 | 3.2 | 25.7 | 0.00 | 0.00 | 0.00 | 31 | 999.8 |
| 20260503223405 | 21 | 296 | 6.4 | 17.7 | 0.00 | 0.00 | 0.00 | 30 | 999.8 |
| 20260503222900 | 21 | 339 | 8.0 | 35.4 | 0.00 | 0.00 | 0.00 | 31 | 999.9 |
| 20260503222359 | 22 | 287 | 6.4 | 11.3 | 0.00 | 0.00 | 0.00 | 30 | 999.9 |
| 20260503221856 | 21 | 321 | 11.3 | 19.3 | 0.00 | 0.00 | 0.00 | 30 | 999.8 |
| 20260503221355 | 21 | 42 | 9.7 | 24.1 | 0.00 | 0.00 | 0.00 | 30 | 999.7 |
| 20260503220850 | 21 | 331 | 6.4 | 17.7 | 0.00 | 0.00 | 0.00 | 30 | 999.7 |
| 20260503220347 | 21 | 211 | 3.2 | 17.7 | 0.00 | 0.00 | 0.00 | 31 | 999.6 |
| 20260503215844 | 21 | 329 | 8.0 | 25.7 | 0.00 | 0.00 | 0.00 | 31 | 999.9 |
| 20260503215342 | 22 | 318 | 4.8 | 27.4 | 0.00 | 0.00 | 0.00 | 31 | 999.6 |
| 20260503214839 | 21 | 235 | 0.0 | 20.9 | 0.00 | 0.00 | 0.00 | 32 | 999.7 |
| 20260503214336 | 21 | 202 | 4.8 | 32.2 | 0.00 | 0.00 | 0.00 | 31 | 999.8 |
| 20260503213833 | 21 | 8 | 9.7 | 25.7 | 0.00 | 0.00 | 0.00 | 33 | 999.6 |
| 20260503213331 | 21 | 322 | 4.8 | 20.9 | 0.00 | 0.00 | 0.00 | 34 | 999.5 |
| 20260503212828 | 21 | 325 | 11.3 | 32.2 | 0.00 | 0.00 | 0.00 | 33 | 999.7 |
| 20260503212326 | 21 | 277 | 16.1 | 22.5 | 0.00 | 0.00 | 0.00 | 34 | 999.8 |
| 20260503211823 | 22 | 311 | 6.4 | 20.9 | 0.00 | 0.00 | 0.00 | 34 | 999.9 |
| 20260503211319 | 21 | 293 | 3.2 | 14.5 | 0.00 | 0.00 | 0.00 | 35 | 999.9 |
| 20260503210819 | 21 | 312 | 17.7 | 19.3 | 0.00 | 0.00 | 0.00 | 33 | 999.9 |
| 20260503210317 | 22 | 27 | 8.0 | 27.4 | 0.00 | 0.00 | 0.00 | 34 | 999.9 |
| 20260503205812 | 21 | 324 | 8.0 | 25.7 | 0.00 | 0.00 | 0.00 | 34 | 1000.1 |
| 20260503205309 | 22 | 45 | 3.2 | 11.3 | 0.00 | 0.00 | 0.00 | 34 | 1000.1 |
| 20260503204805 | 21 | 323 | 9.7 | 17.7 | 0.00 | 0.00 | 0.00 | 32 | 1000.2 |
| 20260503204303 | 22 | 266 | 4.8 | 20.9 | 0.00 | 0.00 | 0.00 | 33 | 1000.4 |
| 20260503203800 | 21 | 64 | 6.4 | 17.7 | 0.00 | 0.00 | 0.00 | 33 | 1000.2 |
| 20260503203257 | 21 | 319 | 6.4 | 22.5 | 0.00 | 0.00 | 0.00 | 33 | 1000.3 |
| 20260503202754 | 22 | 319 | 14.5 | 27.4 | 0.00 | 0.00 | 0.00 | 33 | 1000.2 |
| 20260503202252 | 21 | 332 | 9.7 | 33.8 | 0.00 | 0.00 | 0.00 | 33 | 1000.2 |
| 20260503201744 | 21 | 340 | 4.8 | 22.5 | 0.00 | 0.00 | 0.00 | 34 | 1000.3 |
| 20260503201241 | 21 | 346 | 9.7 | 17.7 | 0.00 | 0.00 | 0.00 | 35 | 1000.2 |
| 20260503200738 | 21 | 38 | 4.8 | 12.9 | 0.00 | 0.00 | 0.00 | 35 | 1000.4 |
| 20260503200234 | 21 | 11 | 9.7 | 16.1 | 0.00 | 0.00 | 0.00 | 34 | 1000.5 |
| 20260503195731 | 21 | 18 | 11.3 | 24.1 | 0.00 | 0.00 | 0.00 | 33 | 1000.3 |
| 20260503195228 | 21 | 17 | 8.0 | 22.5 | 0.00 | 0.00 | 0.00 | 32 | 1000.3 |
| 20260503194726 | 21 | 299 | 11.3 | 20.9 | 0.00 | 0.00 | 0.00 | 34 | 1000.3 |
| 20260503194221 | 21 | 307 | 6.4 | 24.1 | 0.00 | 0.00 | 0.00 | 33 | 1000.3 |
| 20260503193717 | 21 | 91 | 4.8 | 33.8 | 0.00 | 0.00 | 0.00 | 35 | 1000.4 |
| 20260503193214 | 20 | 286 | 4.8 | 19.3 | 0.00 | 0.00 | 0.00 | 36 | 1000.4 |
| 20260503192709 | 20 | 31 | 11.3 | 30.6 | 0.00 | 0.00 | 0.00 | 37 | 1000.4 |
| 20260503192205 | 21 | 293 | 8.0 | 20.9 | 0.00 | 0.00 | 0.00 | 35 | 1000.6 |
| 20260503191702 | 21 | 321 | 14.5 | 20.9 | 0.00 | 0.00 | 0.00 | 33 | 1000.5 |
| 20260503191159 | 21 | 302 | 8.0 | 24.1 | 0.00 | 0.00 | 0.00 | 31 | 1000.7 |
| 20260503190656 | 21 | 308 | 9.7 | 22.5 | 0.00 | 0.00 | 0.00 | 34 | 1000.6 |
| 20260503190152 | 21 | 10 | 8.0 | 27.4 | 0.00 | 0.00 | 0.00 | 34 | 1000.5 |
| 20260503185649 | 21 | 273 | 3.2 | 14.5 | 0.00 | 0.00 | 0.00 | 35 | 1000.5 |
| 20260503185144 | 20 | 140 | 4.8 | 17.7 | 0.00 | 0.00 | 0.00 | 40 | 1000.7 |
| 20260503184634 | 20 | 42 | 9.7 | 29.0 | 0.00 | 0.00 | 0.00 | 39 | 1000.6 |
| 20260503184130 | 20 | 298 | 4.8 | 19.3 | 0.00 | 0.00 | 0.00 | 39 | 1000.7 |
| 20260503183627 | 20 | 345 | 9.7 | 22.5 | 0.00 | 0.00 | 0.00 | 39 | 1000.6 |
| 20260503183124 | 20 | 326 | 9.7 | 22.5 | 0.00 | 0.00 | 0.00 | 41 | 1000.4 |
| 20260503182622 | 20 | 8 | 8.0 | 16.1 | 0.00 | 0.00 | 0.00 | 42 | 1000.8 |
| 20260503182121 | 20 | 28 | 9.7 | 24.1 | 0.00 | 0.00 | 0.00 | 42 | 1000.7 |
| 20260503181617 | 20 | 354 | 6.4 | 14.5 | 0.00 | 0.00 | 0.00 | 44 | 1001.0 |
| 20260503181114 | 20 | 326 | 8.0 | 22.5 | 0.00 | 0.00 | 0.00 | 41 | 1000.9 |
| 20260503180611 | 20 | 324 | 6.4 | 14.5 | 0.00 | 0.00 | 0.00 | 40 | 1000.8 |
| 20260503180109 | 20 | 311 | 6.4 | 16.1 | 0.00 | 0.00 | 0.00 | 42 | 1000.9 |
| 20260503175605 | 20 | 186 | 4.8 | 24.1 | 0.00 | 0.00 | 0.00 | 45 | 1001.1 |
| 20260503175103 | 19 | 326 | 14.5 | 25.7 | 0.00 | 0.00 | 0.00 | 40 | 1000.8 |
| 20260503174559 | 20 | 281 | 4.8 | 11.3 | 0.00 | 0.00 | 0.00 | 41 | 1000.9 |
| 20260503174056 | 19 | 323 | 4.8 | 20.9 | 0.00 | 0.00 | 0.00 | 42 | 1001.1 |
| 20260503173551 | 19 | 18 | 11.3 | 24.1 | 0.00 | 0.00 | 0.00 | 41 | 1001.0 |
| 20260503173048 | 19 | 0 | 6.4 | 19.3 | 0.00 | 0.00 | 0.00 | 42 | 1000.9 |
| 20260503172545 | 18 | 316 | 8.0 | 16.1 | 0.00 | 0.00 | 0.00 | 44 | 1000.8 |
| 20260503172042 | 18 | 10 | 11.3 | 19.3 | 0.00 | 0.00 | 0.00 | 43 | 1000.9 |
| 20260503171538 | 18 | 301 | 4.8 | 24.1 | 0.00 | 0.00 | 0.00 | 43 | 1001.2 |
| 20260503171036 | 18 | 312 | 8.0 | 16.1 | 0.00 | 0.00 | 0.00 | 44 | 1001.0 |
| 20260503170532 | 18 | 307 | 11.3 | 25.7 | 0.00 | 0.00 | 0.00 | 45 | 1001.0 |
| 20260503150925 | 17 | 248 | 3.2 | 11.3 | 0.00 | 0.00 | 0.00 | 43 | 1000.9 |
| 20260503150421 | 17 | 349 | 6.4 | 11.3 | 0.00 | 0.00 | 0.00 | 42 | 1001.0 |
| 20260503131314 | 13 | 204 | 8.0 | 19.3 | 0.00 | 0.00 | 0.00 | 51 | 1000.8 |
| 20260503130812 | 13 | 247 | 12.9 | 17.7 | 0.00 | 0.00 | 0.00 | 50 | 1001.2 |
| 20260503130309 | 12 | 244 | 11.3 | 24.1 | 0.00 | 0.00 | 0.00 | 51 | 1001.1 |
| 20260503110703 | 11 | 223 | 4.8 | 24.1 | 0.00 | 0.00 | 0.00 | 57 | 1000.9 |
| 20260503110200 | 11 | 211 | 20.9 | 20.9 | 0.00 | 0.00 | 0.00 | 58 | 1000.9 |
| 20260503100121 | 11 | 200 | 17.7 | 19.3 | 0.00 | 0.00 | 0.00 | 53 | 1001.5 |
| 20260503081503 | 11 | 251 | 3.2 | 14.5 | 0.00 | 0.00 | 0.00 | 54 | 1003.4 |
| 20260503081000 | 11 | 234 | 6.4 | 12.9 | 0.00 | 0.00 | 0.00 | 53 | 1003.5 |
| 20260503080451 | 12 | 229 | 8.0 | 24.1 | 0.00 | 0.00 | 0.00 | 51 | 1003.6 |
| 20260503072928 | 11 | 236 | 6.4 | 14.5 | 0.00 | 0.00 | 0.00 | 52 | 1003.6 |
| 20260503072425 | 11 | 219 | 8.0 | 19.3 | 0.00 | 0.00 | 0.00 | 51 | 1003.6 |
| 20260503071922 | 11 | 221 | 6.4 | 17.7 | 0.00 | 0.00 | 0.00 | 52 | 1003.5 |
| 20260503071419 | 11 | 227 | 6.4 | 14.5 | 0.00 | 0.00 | 0.00 | 53 | 1003.7 |
| 20260503070915 | 11 | 230 | 6.4 | 12.9 | 0.00 | 0.00 | 0.00 | 52 | 1003.9 |
| 20260503070413 | 11 | 221 | 8.0 | 12.9 | 0.00 | 0.00 | 0.00 | 53 | 1003.9 |
| 20260503060338 | 12 | 214 | 11.3 | 17.7 | 0.00 | 0.00 | 0.00 | 50 | 1004.6 |
| 20260503054826 | 12 | 209 | 17.7 | 17.7 | 0.00 | 0.00 | 0.00 | 50 | 1004.7 |
| 20260503054322 | 12 | 236 | 4.8 | 14.5 | 0.00 | 0.00 | 0.00 | 51 | 1004.8 |
| 20260503053820 | 12 | 214 | 6.4 | 14.5 | 0.00 | 0.00 | 0.00 | 50 | 1004.6 |
| 20260503053318 | 12 | 218 | 6.4 | 12.9 | 0.00 | 0.00 | 0.00 | 50 | 1004.9 |
| 20260503052814 | 12 | 209 | 6.4 | 11.3 | 0.00 | 0.00 | 0.00 | 50 | 1004.9 |
| 20260503052311 | 12 | 219 | 8.0 | 12.9 | 0.00 | 0.00 | 0.00 | 49 | 1005.0 |
| 20260503051807 | 12 | 223 | 4.8 | 8.0 | 0.00 | 0.00 | 0.00 | 51 | 1005.0 |
| 20260503051304 | 12 | 196 | 8.0 | 14.5 | 0.00 | 0.00 | 0.00 | 51 | 1005.1 |
| 20260503050800 | 12 | 221 | 8.0 | 12.9 | 0.00 | 0.00 | 0.00 | 51 | 1005.0 |
| 20260503050257 | 12 | 201 | 9.7 | 16.1 | 0.00 | 0.00 | 0.00 | 51 | 1005.1 |
| 20260503045754 | 12 | 199 | 8.0 | 12.9 | 0.00 | 0.00 | 0.00 | 51 | 1005.2 |
| 20260503045252 | 12 | 217 | 6.4 | 14.5 | 0.00 | 0.00 | 0.00 | 52 | 1005.2 |
| 20260503044748 | 12 | 198 | 9.7 | 9.7 | 0.00 | 0.00 | 0.00 | 52 | 1005.5 |
| 20260503044245 | 12 | 208 | 6.4 | 11.3 | 0.00 | 0.00 | 0.00 | 51 | 1005.4 |
| 20260503043743 | 12 | 209 | 8.0 | 9.7 | 0.00 | 0.00 | 0.00 | 52 | 1005.5 |
| 20260503043240 | 12 | 195 | 6.4 | 8.0 | 0.00 | 0.00 | 0.00 | 52 | 1005.6 |
| 20260503042735 | 12 | 221 | 4.8 | 8.0 | 0.00 | 0.00 | 0.00 | 52 | 1005.6 |
| 20260503042232 | 12 | 215 | 6.4 | 11.3 | 0.00 | 0.00 | 0.00 | 52 | 1005.6 |
| 20260503041728 | 12 | 209 | 6.4 | 8.0 | 0.00 | 0.00 | 0.00 | 52 | 1005.5 |
| 20260503041226 | 12 | 201 | 4.8 | 8.0 | 0.00 | 0.00 | 0.00 | 53 | 1006.0 |
| 20260503040723 | 12 | 215 | 4.8 | 6.4 | 0.00 | 0.00 | 0.00 | 50 | 1005.9 |
| 20260503040220 | 12 | 214 | 3.2 | 6.4 | 0.00 | 0.00 | 0.00 | 51 | 1006.0 |
| 20260503035717 | 12 | 216 | 3.2 | 6.4 | 0.00 | 0.00 | 0.00 | 51 | 1006.2 |